Weather History for West Palm Beach, FL

Change the Weather History Date:

Thursday, March 24, 2011

  Actual Average Record
Temperature  
Mean Temperature 77 °F 71 °F  
Max Temperature 91 °F 79 °F 92 °F (1908)
Min Temperature 63 °F 63 °F 43 °F (1968)
Degree Days  
Heating Degree Days 0 0  
Month to date heating degree days 6 22  
Since 1 July heating degree days 309 227  
Cooling Degree Days 12 7  
Month to date cooling degree days 166 144  
Year to date cooling degree days 447 379  
Growing Degree Days 26 (Base 50)    
Moisture  
Dew Point 61 °F    
Average Humidity 61    
Maximum Humidity 93    
Minimum Humidity 29    
Precipitation  
Precipitation 0.00 in 0.16 in 1.73 in (1896)
Month to date precipitation 0.48 3.56  
Year to date precipitation 3.13 9.51  
Snow  
Snow 0.00 in - - ()
Month to date snowfall 0.0  
Since 1 July snowfall 0.0  
Snow Depth 0.00 in    
Sea Level Pressure  
Sea Level Pressure 29.96 in    
Wind  
Wind Speed 10 mph (West)    
Max Wind Speed 20 mph    
Max Gust Speed 25 mph    
Visibility 8 miles    
Events      
T = Trace of Precipitation, MM = Missing Value Source: NWS Daily Summary

Daily Weather History Graph

Daily Weather History Graph

Search for Another Location

Airport:

Trip Planner

Search our weather history database for the weather conditions in past years. The results will help you decide how hot, cold, wet, or windy it might be!

Date:

Astronomy

Mar. 24, 2011 Rise Set
Actual Time 7:20 AM EDT 7:33 PM EDT
Civil Twilight 6:57 AM EDT 7:56 PM EDT
Nautical Twilight 6:30 AM EDT 8:23 PM EDT
Astronomical Twilight 6:02 AM EDT 8:51 PM EDT
Moon 12:12 AM EDT (3/24) 10:55 AM EDT (3/24)
Length of Visible Light 12h 59m
Length of Day
12h 13m
Waning Gibbous, 69% of the Moon is Illuminated
Mar 24
Waning Gibbous
Mar 26
Last Quarter
Apr 3
New
Apr 11
First Quarter
Apr 17
Full

Hourly Weather History & Observations

Time (EDT) Temp. Heat Index Dew Point Humidity Pressure Visibility Wind Dir Wind Speed Gust Speed Precip Events Conditions
12:53 AM 69.1 °F - 62.1 °F 78% 29.97 in 10.0 mi SW 8.1 mph - N/A   Clear
1:53 AM 68.0 °F - 61.0 °F 78% 29.96 in 10.0 mi WSW 9.2 mph - N/A   Clear
2:53 AM 66.9 °F - 62.1 °F 84% 29.95 in 10.0 mi WSW 8.1 mph - N/A   Clear
3:53 AM 64.9 °F - 61.0 °F 87% 29.94 in 10.0 mi WSW 6.9 mph - N/A   Clear
4:31 AM 64.4 °F - 62.6 °F 94% 29.94 in 10.0 mi West 6.9 mph - N/A   Partly Cloudy
4:53 AM 64.9 °F - 61.0 °F 87% 29.94 in 10.0 mi WSW 5.8 mph - N/A   Partly Cloudy
5:53 AM 63.0 °F - 60.1 °F 90% 29.96 in 10.0 mi West 5.8 mph - N/A   Partly Cloudy
6:53 AM 63.0 °F - 60.1 °F 90% 29.97 in 10.0 mi West 5.8 mph - N/A   Partly Cloudy
7:50 AM 64.4 °F - 62.6 °F 94% 29.99 in 10.0 mi West 4.6 mph - N/A   Scattered Clouds
7:53 AM 64.0 °F - 62.1 °F 93% 29.99 in 6.0 mi West 4.6 mph - N/A   Scattered Clouds
8:00 AM 64.4 °F - 62.6 °F 94% 30.00 in 4.0 mi West 8.1 mph - N/A   Mostly Cloudy
8:06 AM 64.4 °F - 62.6 °F 94% 30.00 in 1.0 mi West 6.9 mph - N/A   Overcast
8:24 AM 64.4 °F - 62.6 °F 94% 30.00 in 0.8 mi WSW 4.6 mph - N/A   Overcast
8:46 AM 66.2 °F - 64.4 °F 94% 30.01 in 1.5 mi WSW 5.8 mph - N/A   Overcast
8:53 AM 66.0 °F - 64.0 °F 93% 30.01 in 1.5 mi West 8.1 mph - N/A   Overcast
9:18 AM 68.0 °F - 66.2 °F 94% 30.02 in 6.0 mi WSW 5.8 mph - N/A   Scattered Clouds
9:53 AM 72.0 °F - 63.0 °F 73% 30.02 in 10.0 mi WSW 10.4 mph - N/A   Scattered Clouds
10:22 AM 73.4 °F - 62.6 °F 69% 30.02 in 10.0 mi WSW 6.9 mph - N/A   Mostly Cloudy
10:48 AM 75.2 °F - 62.6 °F 65% 30.02 in 10.0 mi WSW 10.4 mph - N/A   Scattered Clouds
10:53 AM 75.9 °F - 62.1 °F 62% 30.02 in 10.0 mi West 8.1 mph - N/A   Scattered Clouds
11:53 AM 80.1 °F 81.2 °F 62.1 °F 54% 30.01 in 10.0 mi West 13.8 mph 18.4 mph N/A   Scattered Clouds
12:53 PM 84.0 °F 84.0 °F 60.1 °F 44% 29.98 in 10.0 mi SW 11.5 mph 18.4 mph N/A   Partly Cloudy
1:53 PM 87.1 °F 86.5 °F 59.0 °F 39% 29.94 in 10.0 mi SW 10.4 mph 21.9 mph N/A   Scattered Clouds
2:53 PM 88.0 °F 86.1 °F 55.0 °F 32% 29.91 in 10.0 mi WNW 13.8 mph 19.6 mph N/A   Mostly Cloudy
3:53 PM 89.1 °F 86.7 °F 53.1 °F 29% 29.88 in 10.0 mi WNW 16.1 mph 23.0 mph N/A   Scattered Clouds
4:53 PM 88.0 °F 85.9 °F 54.0 °F 31% 29.87 in 10.0 mi West 12.7 mph 23.0 mph N/A   Scattered Clouds
5:53 PM 88.0 °F 86.5 °F 55.9 °F 34% 29.87 in 10.0 mi WNW 15.0 mph - N/A   Scattered Clouds
6:53 PM 84.9 °F 84.2 °F 57.9 °F 40% 29.88 in 10.0 mi West 12.7 mph 23.0 mph N/A   Scattered Clouds
7:53 PM 82.0 °F 82.0 °F 57.9 °F 44% 29.90 in 10.0 mi West 12.7 mph - N/A   Partly Cloudy
8:53 PM 79.0 °F - 61.0 °F 54% 29.91 in 10.0 mi West 12.7 mph - N/A   Partly Cloudy
9:53 PM 77.0 °F - 63.0 °F 62% 29.94 in 10.0 mi West 11.5 mph - N/A   Partly Cloudy
10:53 PM 75.0 °F - 63.0 °F 66% 29.95 in 10.0 mi West 15.0 mph - N/A   Clear
11:53 PM 73.0 °F - 64.0 °F 73% 29.96 in 10.0 mi West 10.4 mph - N/A   Clear